| time (UTC) | temp F | wind direction | speed MPH | gust MPH | rain 1hr in | rain 24hr in | rain mn in | humidity % | barometer mb |
| 20260508012307 | 80 | 286 | 1.0 | 3.0 | 0.00 | 0.00 | 0.00 | 49 | 1013.6 |
| 20260508011305 | 81 | 286 | 2.0 | 4.0 | 0.00 | 0.00 | 0.00 | 48 | 1013.5 |
| 20260508010307 | 82 | 282 | 2.0 | 4.0 | 0.00 | 0.00 | 0.00 | 47 | 1013.5 |
| 20260508005305 | 83 | 290 | 3.0 | 6.0 | 0.00 | 0.00 | 0.00 | 46 | 1013.5 |
| 20260508004303 | 84 | 269 | 3.0 | 5.0 | 0.00 | 0.00 | 0.00 | 45 | 1013.5 |
| 20260508003302 | 85 | 282 | 3.0 | 7.0 | 0.00 | 0.00 | 0.00 | 43 | 1013.4 |
| 20260508002306 | 85 | 282 | 3.0 | 7.0 | 0.00 | 0.00 | 0.00 | 42 | 1013.4 |
| 20260508001304 | 86 | 291 | 4.0 | 9.0 | 0.00 | 0.00 | 0.00 | 41 | 1013.2 |
| 20260508000735 | 87 | 294 | 3.0 | 8.0 | 0.00 | 0.00 | 0.00 | 42 | 1013.1 |
| 20260507235252 | 88 | 267 | 4.0 | 11.0 | 0.00 | 0.00 | 0.00 | 44 | 1013.1 |
| 20260507234253 | 89 | 269 | 3.0 | 7.0 | 0.00 | 0.00 | 0.00 | 46 | 1013.1 |
| 20260507233252 | 89 | 279 | 4.0 | 9.0 | 0.00 | 0.00 | 0.00 | 44 | 1013.1 |
| 20260507232253 | 90 | 272 | 3.0 | 8.0 | 0.00 | 0.00 | 0.00 | 40 | 1013.0 |
| 20260507231248 | 92 | 291 | 4.0 | 8.0 | 0.00 | 0.00 | 0.00 | 38 | 1012.8 |
| 20260507230249 | 92 | 275 | 5.0 | 13.0 | 0.00 | 0.00 | 0.00 | 37 | 1012.8 |
| 20260507225248 | 93 | 288 | 4.0 | 9.0 | 0.00 | 0.00 | 0.00 | 36 | 1012.8 |
| 20260507224248 | 94 | 305 | 5.0 | 11.0 | 0.00 | 0.00 | 0.00 | 34 | 1012.7 |
| 20260507223250 | 94 | 281 | 5.0 | 10.0 | 0.00 | 0.00 | 0.00 | 32 | 1012.7 |
| 20260507222722 | 94 | 262 | 5.0 | 10.0 | 0.00 | 0.00 | 0.00 | 33 | 1012.7 |
| 20260507221242 | 94 | 273 | 4.0 | 8.0 | 0.00 | 0.00 | 0.00 | 32 | 1012.7 |
| 20260507220241 | 94 | 290 | 5.0 | 11.0 | 0.00 | 0.00 | 0.00 | 33 | 1012.7 |
| 20260507215725 | 95 | 279 | 6.0 | 11.0 | 0.00 | 0.00 | 0.00 | 31 | 1012.7 |
| 20260507214241 | 94 | 311 | 7.0 | 13.0 | 0.00 | 0.00 | 0.00 | 31 | 1012.7 |
| 20260507213240 | 96 | 286 | 6.0 | 14.0 | 0.00 | 0.00 | 0.00 | 32 | 1012.7 |
| 20260507212243 | 96 | 247 | 6.0 | 13.0 | 0.00 | 0.00 | 0.00 | 34 | 1012.6 |
| 20260507211235 | 96 | 276 | 6.0 | 13.0 | 0.00 | 0.00 | 0.00 | 36 | 1012.6 |
| 20260507210237 | 96 | 289 | 5.0 | 15.0 | 0.00 | 0.00 | 0.00 | 36 | 1012.7 |
| 20260507205238 | 97 | 294 | 5.0 | 11.0 | 0.00 | 0.00 | 0.00 | 36 | 1012.9 |
| 20260507204711 | 96 | 288 | 4.0 | 11.0 | 0.00 | 0.00 | 0.00 | 37 | 1012.8 |
| 20260507203231 | 96 | 217 | 3.0 | 11.0 | 0.00 | 0.00 | 0.00 | 37 | 1012.9 |
| 20260507202224 | 96 | 256 | 5.0 | 16.0 | 0.00 | 0.00 | 0.00 | 38 | 1013.2 |
| 20260507201223 | 96 | 294 | 6.0 | 11.0 | 0.00 | 0.00 | 0.00 | 39 | 1013.1 |
| 20260507200224 | 96 | 209 | 5.0 | 11.0 | 0.00 | 0.00 | 0.00 | 39 | 1013.2 |
| 20260507195226 | 95 | 225 | 5.0 | 11.0 | 0.00 | 0.00 | 0.00 | 41 | 1013.4 |
| 20260507194218 | 95 | 220 | 7.0 | 17.0 | 0.00 | 0.00 | 0.00 | 41 | 1013.6 |
| 20260507193218 | 95 | 266 | 4.0 | 11.0 | 0.00 | 0.00 | 0.00 | 43 | 1013.7 |
| 20260507192217 | 95 | 233 | 7.0 | 14.0 | 0.00 | 0.00 | 0.00 | 39 | 1013.7 |
| 20260507191215 | 95 | 229 | 6.0 | 12.0 | 0.00 | 0.00 | 0.00 | 42 | 1013.8 |
| 20260507191135 | 94 | 216 | 6.0 | 13.0 | 0.00 | 0.00 | 0.00 | 42 | 1014.0 |
| 20260507185217 | 93 | 198 | 6.0 | 14.0 | 0.00 | 0.00 | 0.00 | 45 | 1014.1 |
| 20260507184213 | 94 | 228 | 6.0 | 12.0 | 0.00 | 0.00 | 0.00 | 44 | 1014.3 |
| 20260507183214 | 93 | 219 | 6.0 | 14.0 | 0.00 | 0.00 | 0.00 | 48 | 1014.4 |
| 20260507182213 | 94 | 260 | 7.0 | 15.0 | 0.00 | 0.00 | 0.00 | 47 | 1014.7 |
| 20260507181702 | 94 | 218 | 6.0 | 14.0 | 0.00 | 0.00 | 0.00 | 50 | 1014.7 |
| 20260507180212 | 93 | 285 | 6.0 | 14.0 | 0.00 | 0.00 | 0.00 | 50 | 1014.9 |
| 20260507175211 | 94 | 236 | 6.0 | 15.0 | 0.00 | 0.00 | 0.00 | 50 | 1015.1 |
| 20260507174209 | 93 | 287 | 7.0 | 16.0 | 0.00 | 0.00 | 0.00 | 51 | 1015.2 |
| 20260507173209 | 92 | 262 | 6.0 | 14.0 | 0.00 | 0.00 | 0.00 | 54 | 1015.3 |
| 20260507172210 | 92 | 277 | 7.0 | 13.0 | 0.00 | 0.00 | 0.00 | 53 | 1015.3 |
| 20260507171209 | 91 | 209 | 7.0 | 15.0 | 0.00 | 0.00 | 0.00 | 53 | 1015.4 |
| 20260507170211 | 91 | 200 | 6.0 | 12.0 | 0.00 | 0.00 | 0.00 | 52 | 1015.3 |
| 20260507165642 | 91 | 238 | 6.0 | 13.0 | 0.00 | 0.00 | 0.00 | 52 | 1015.4 |
| 20260507164647 | 92 | 188 | 5.0 | 12.0 | 0.00 | 0.00 | 0.00 | 50 | 1015.6 |
| 20260507163207 | 91 | 217 | 5.0 | 14.0 | 0.00 | 0.00 | 0.00 | 52 | 1015.6 |
| 20260507162658 | 91 | 282 | 5.0 | 14.0 | 0.00 | 0.00 | 0.00 | 54 | 1015.7 |
| 20260507161207 | 90 | 316 | 6.0 | 18.0 | 0.00 | 0.00 | 0.00 | 51 | 1015.9 |
| 20260507160210 | 89 | 252 | 5.0 | 10.0 | 0.00 | 0.00 | 0.00 | 53 | 1015.9 |
| 20260507155650 | 89 | 237 | 6.0 | 11.0 | 0.00 | 0.00 | 0.00 | 50 | 1016.1 |
| 20260507154208 | 89 | 179 | 5.0 | 12.0 | 0.00 | 0.00 | 0.00 | 50 | 1016.2 |
| 20260507153159 | 89 | 249 | 5.0 | 12.0 | 0.00 | 0.00 | 0.00 | 52 | 1016.2 |
| 20260507152652 | 88 | 232 | 5.0 | 10.0 | 0.00 | 0.00 | 0.00 | 51 | 1016.3 |
| 20260507151643 | 87 | 224 | 5.0 | 12.0 | 0.00 | 0.00 | 0.00 | 53 | 1016.3 |
| 20260507150158 | 87 | 230 | 5.0 | 11.0 | 0.00 | 0.00 | 0.00 | 52 | 1016.5 |
| 20260507145146 | 87 | 179 | 5.0 | 12.0 | 0.00 | 0.00 | 0.00 | 52 | 1016.4 |
| 20260507144146 | 86 | 243 | 6.0 | 13.0 | 0.00 | 0.00 | 0.00 | 55 | 1016.4 |
| 20260507143147 | 85 | 240 | 6.0 | 15.0 | 0.00 | 0.00 | 0.00 | 54 | 1016.4 |
| 20260507142145 | 85 | 210 | 6.0 | 13.0 | 0.00 | 0.00 | 0.00 | 55 | 1016.4 |
| 20260507141146 | 84 | 201 | 6.0 | 12.0 | 0.00 | 0.00 | 0.00 | 57 | 1016.4 |
| 20260507140145 | 84 | 187 | 5.0 | 10.0 | 0.00 | 0.00 | 0.00 | 59 | 1016.4 |
| 20260507135626 | 83 | 204 | 4.0 | 11.0 | 0.00 | 0.00 | 0.00 | 63 | 1016.4 |
| 20260507134629 | 82 | 190 | 5.0 | 11.0 | 0.00 | 0.00 | 0.00 | 66 | 1016.4 |
| 20260507133142 | 82 | 202 | 4.0 | 13.0 | 0.00 | 0.00 | 0.00 | 70 | 1016.4 |
| 20260507132618 | 81 | 197 | 4.0 | 11.0 | 0.00 | 0.00 | 0.00 | 72 | 1016.2 |
| 20260507131142 | 80 | 171 | 4.0 | 9.0 | 0.00 | 0.00 | 0.00 | 74 | 1016.2 |
| 20260507130619 | 79 | 183 | 4.0 | 8.0 | 0.00 | 0.00 | 0.00 | 75 | 1016.2 |
| 20260507125626 | 78 | 208 | 3.0 | 8.0 | 0.00 | 0.00 | 0.00 | 77 | 1016.2 |
| 20260507124143 | 76 | 181 | 3.0 | 7.0 | 0.00 | 0.00 | 0.00 | 79 | 1016.1 |
| 20260507123135 | 75 | 202 | 4.0 | 7.0 | 0.00 | 0.00 | 0.00 | 82 | 1016.1 |
| 20260507122132 | 74 | 195 | 4.0 | 9.0 | 0.00 | 0.00 | 0.00 | 84 | 1016.1 |
| 20260507121132 | 74 | 204 | 2.0 | 7.0 | 0.00 | 0.00 | 0.00 | 86 | 1016.2 |
| 20260507120133 | 72 | 193 | 3.0 | 7.0 | 0.00 | 0.00 | 0.00 | 89 | 1016.1 |
| 20260507115133 | 70 | 176 | 2.0 | 6.0 | 0.00 | 0.00 | 0.00 | 92 | 1015.9 |
| 20260507114619 | 68 | 183 | 1.0 | 5.0 | 0.00 | 0.00 | 0.00 | 92 | 1015.9 |
| 20260507113135 | 67 | 188 | 0.0 | 0.0 | 0.00 | 0.00 | 0.00 | 92 | 1015.9 |
| 20260507112624 | 66 | 188 | 0.0 | 1.0 | 0.00 | 0.00 | 0.00 | 92 | 1015.9 |
| 20260507111135 | 66 | 167 | 0.0 | 0.0 | 0.00 | 0.00 | 0.00 | 92 | 1015.7 |
| 20260507110130 | 66 | 165 | 0.0 | 0.0 | 0.00 | 0.00 | 0.00 | 92 | 1015.7 |
| 20260507105131 | 66 | 174 | 0.0 | 1.0 | 0.00 | 0.00 | 0.00 | 92 | 1015.7 |
| 20260507104130 | 66 | 177 | 0.0 | 1.0 | 0.00 | 0.00 | 0.00 | 92 | 1015.6 |
| 20260507103131 | 66 | 177 | 0.0 | 0.0 | 0.00 | 0.00 | 0.00 | 91 | 1015.7 |
| 20260507102117 | 67 | 177 | 0.0 | 0.0 | 0.00 | 0.00 | 0.00 | 90 | 1015.6 |
| 20260507102037 | 67 | 177 | 0.0 | 1.0 | 0.00 | 0.00 | 0.00 | 90 | 1015.5 |
| 20260507100600 | 67 | 177 | 0.0 | 0.0 | 0.00 | 0.00 | 0.00 | 90 | 1015.3 |
| 20260507095115 | 67 | 177 | 0.0 | 1.0 | 0.00 | 0.00 | 0.00 | 90 | 1015.1 |
| 20260507094118 | 67 | 177 | 0.0 | 1.0 | 0.00 | 0.00 | 0.00 | 90 | 1014.9 |
| 20260507093119 | 67 | 177 | 0.0 | 1.0 | 0.00 | 0.00 | 0.00 | 90 | 1014.8 |
| 20260507092117 | 67 | 177 | 0.0 | 0.0 | 0.00 | 0.00 | 0.00 | 89 | 1014.9 |
| 20260507091114 | 68 | 177 | 0.0 | 0.0 | 0.00 | 0.00 | 0.00 | 88 | 1015.0 |
| 20260507090113 | 68 | 177 | 0.0 | 0.0 | 0.00 | 0.00 | 0.00 | 89 | 1015.1 |
| 20260507085113 | 69 | 177 | 0.0 | 0.0 | 0.00 | 0.00 | 0.00 | 89 | 1015.0 |
| 20260507084113 | 69 | 177 | 0.0 | 1.0 | 0.00 | 0.00 | 0.00 | 89 | 1014.9 |
| 20260507083113 | 69 | 177 | 0.0 | 1.0 | 0.00 | 0.00 | 0.00 | 90 | 1014.8 |
| 20260507082113 | 69 | 177 | 0.0 | 0.0 | 0.00 | 0.00 | 0.00 | 88 | 1014.6 |
| 20260507081112 | 69 | 177 | 0.0 | 3.0 | 0.00 | 0.00 | 0.00 | 87 | 1014.7 |
| 20260507080602 | 70 | 177 | 0.0 | 3.0 | 0.00 | 0.00 | 0.00 | 85 | 1014.7 |
| 20260507075113 | 70 | 177 | 1.0 | 3.0 | 0.00 | 0.00 | 0.00 | 85 | 1014.7 |
| 20260507074113 | 70 | 177 | 0.0 | 3.0 | 0.00 | 0.00 | 0.00 | 84 | 1014.7 |
| 20260507073110 | 71 | 177 | 0.0 | 0.0 | 0.00 | 0.00 | 0.00 | 83 | 1014.9 |
| 20260507072110 | 72 | 177 | 0.0 | 1.0 | 0.00 | 0.00 | 0.00 | 81 | 1014.9 |
| 20260507071109 | 72 | 177 | 1.0 | 3.0 | 0.00 | 0.00 | 0.00 | 79 | 1014.9 |
| 20260507070110 | 73 | 177 | 2.0 | 5.0 | 0.00 | 0.00 | 0.00 | 78 | 1015.0 |
| 20260507065547 | 74 | 177 | 2.0 | 6.0 | 0.00 | 0.00 | 0.00 | 77 | 1015.0 |
| 20260507064108 | 74 | 170 | 3.0 | 5.0 | 0.00 | 0.00 | 0.00 | 76 | 1015.2 |
| 20260507063109 | 74 | 181 | 2.0 | 6.0 | 0.00 | 0.00 | 0.00 | 76 | 1015.3 |
| 20260507062548 | 74 | 183 | 3.0 | 6.0 | 0.00 | 0.00 | 0.00 | 75 | 1015.4 |
| 20260507061103 | 74 | 174 | 3.0 | 6.0 | 0.00 | 0.00 | 0.00 | 74 | 1015.5 |
| 20260507060105 | 75 | 192 | 3.0 | 10.0 | 0.00 | 0.00 | 0.00 | 74 | 1015.6 |
| 20260507055538 | 75 | 150 | 4.0 | 7.0 | 0.00 | 0.00 | 0.00 | 74 | 1015.6 |
| 20260507054101 | 75 | 189 | 4.0 | 8.0 | 0.00 | 0.00 | 0.00 | 73 | 1015.6 |
| 20260507053101 | 75 | 177 | 4.0 | 7.0 | 0.00 | 0.00 | 0.00 | 73 | 1015.7 |
| 20260507052102 | 74 | 165 | 4.0 | 7.0 | 0.00 | 0.00 | 0.00 | 73 | 1015.9 |
| 20260507051548 | 74 | 176 | 2.0 | 6.0 | 0.00 | 0.00 | 0.00 | 74 | 1016.0 |
| 20260507045105 | 74 | 167 | 2.0 | 6.0 | 0.00 | 0.00 | 0.00 | 73 | 1016.2 |
| 20260507044050 | 75 | 177 | 2.0 | 5.0 | 0.00 | 0.00 | 0.00 | 72 | 1016.4 |
| 20260507043048 | 75 | 150 | 2.0 | 7.0 | 0.00 | 0.00 | 0.00 | 71 | 1016.4 |
| 20260507042048 | 76 | 147 | 2.0 | 7.0 | 0.00 | 0.00 | 0.00 | 70 | 1016.3 |
| 20260507041048 | 76 | 151 | 3.0 | 7.0 | 0.00 | 0.00 | 0.00 | 70 | 1016.2 |
| 20260507040047 | 76 | 154 | 3.0 | 7.0 | 0.00 | 0.00 | 0.00 | 69 | 1016.2 |
| 20260507035524 | 76 | 156 | 2.0 | 5.0 | 0.00 | 0.00 | 0.00 | 69 | 1016.3 |
| 20260507034037 | 77 | 156 | 3.0 | 6.0 | 0.00 | 0.00 | 0.00 | 68 | 1016.3 |
| 20260507033521 | 77 | 154 | 3.0 | 7.0 | 0.00 | 0.00 | 0.00 | 67 | 1016.3 |
| 20260507032036 | 78 | 147 | 3.0 | 9.0 | 0.00 | 0.00 | 0.00 | 66 | 1016.2 |
| 20260507031037 | 78 | 160 | 3.0 | 7.0 | 0.00 | 0.00 | 0.00 | 66 | 1016.1 |
| 20260507030035 | 78 | 147 | 3.0 | 7.0 | 0.00 | 0.00 | 0.00 | 66 | 1016.1 |
| 20260507025037 | 78 | 146 | 4.0 | 7.0 | 0.00 | 0.00 | 0.00 | 65 | 1016.0 |
| 20260507024037 | 79 | 148 | 3.0 | 9.0 | 0.00 | 0.00 | 0.00 | 64 | 1016.2 |
| 20260507023037 | 79 | 171 | 4.0 | 9.0 | 0.00 | 0.00 | 0.00 | 63 | 1016.2 |
| 20260507022035 | 79 | 170 | 5.0 | 13.0 | 0.00 | 0.00 | 0.00 | 63 | 1016.2 |
| 20260507021036 | 79 | 181 | 3.0 | 9.0 | 0.00 | 0.00 | 0.00 | 64 | 1016.1 |
| 20260507020039 | 79 | 176 | 4.0 | 9.0 | 0.00 | 0.00 | 0.00 | 63 | 1016.0 |
| 20260507015023 | 80 | 173 | 3.0 | 7.0 | 0.00 | 0.00 | 0.00 | 62 | 1016.0 |
| 20260507014502 | 80 | 154 | 3.0 | 9.0 | 0.00 | 0.00 | 0.00 | 59 | 1015.7 |